DW8633 Weather Reports


Display with metric or nautical units.
time (UTC)temp
F
wind
direction
speed
MPH
gust
MPH
rain 1hr
in
rain 24hr
in
rain mn
in
humidity
%
barometer
mb
20260507115518 24 360 2.0 5.0 0.00 0.00 0.00 60 928.9
20260507115022 24 360 3.0 5.0 0.00 0.00 0.00 60 928.9
20260507114516 24 360 4.0 5.0 0.00 0.00 0.00 60 928.9
20260507114018 24 360 0.0 4.0 0.00 0.00 0.00 62 928.9
20260507113034 24 360 0.0 1.0 0.00 0.00 0.00 65 928.8
20260507112513 24 360 0.0 0.0 0.00 0.00 0.00 64 928.8
20260507112013 24 360 0.0 0.0 0.00 0.00 0.00 63 928.9
20260507111511 24 360 0.0 0.0 0.00 0.00 0.00 62 928.9
20260507111011 25 360 0.0 0.0 0.00 0.00 0.00 60 928.9
20260507110509 25 360 0.0 0.0 0.00 0.00 0.00 59 928.9
20260507110011 25 360 0.0 0.0 0.00 0.00 0.00 58 928.9
20260507105506 26 360 0.0 0.0 0.00 0.00 0.00 57 928.9
20260507105005 26 360 0.0 0.0 0.00 0.00 0.00 56 928.9
20260507104506 27 360 0.0 0.0 0.00 0.00 0.00 56 928.9
20260507104010 27 360 0.0 0.0 0.00 0.00 0.00 57 928.9
20260507103006 27 360 0.0 4.0 0.00 0.00 0.00 57 928.8
20260507102506 27 360 2.0 3.0 0.00 0.00 0.00 55 928.8
20260507102006 27 360 2.0 4.0 0.00 0.00 0.00 58 928.7
20260507101513 27 360 0.0 0.0 0.00 0.00 0.00 59 928.7
20260507101005 26 360 0.0 0.0 0.00 0.00 0.00 60 928.6
20260507100504 26 360 0.0 0.0 0.00 0.00 0.00 60 928.7
20260507100005 27 360 0.0 0.0 0.00 0.00 0.00 59 928.7
20260507095504 27 360 0.0 0.0 0.00 0.00 0.00 55 928.6
20260507095004 28 360 0.0 0.0 0.00 0.00 0.00 55 928.6
20260507094504 28 360 0.0 0.0 0.00 0.00 0.00 56 928.6
20260507094003 28 360 0.0 4.0 0.00 0.00 0.00 57 928.7
20260507093003 27 360 0.0 0.0 0.00 0.00 0.00 62 928.5
20260507092505 27 360 0.0 0.0 0.00 0.00 0.00 62 928.6
20260507092002 27 360 0.0 0.0 0.00 0.00 0.00 61 928.6
20260507091503 27 360 0.0 0.0 0.00 0.00 0.00 60 928.6
20260507091002 27 360 0.0 0.0 0.00 0.00 0.00 59 928.7
20260507090601 27 360 0.0 1.0 0.00 0.00 0.00 57 928.7
20260507090100 27 360 0.0 1.0 0.00 0.00 0.00 56 928.7
20260507085559 28 360 0.0 2.0 0.00 0.00 0.00 53 928.7
20260507085059 28 360 0.0 2.0 0.00 0.00 0.00 53 928.8
20260507084610 29 360 0.0 1.0 0.00 0.00 0.00 52 928.9
20260507084059 30 360 0.0 2.0 0.00 0.00 0.00 48 928.8
20260507083058 30 360 3.0 5.0 0.00 0.00 0.00 48 928.7
20260507082558 31 360 4.0 5.0 0.00 0.00 0.00 48 928.8
20260507082057 29 360 3.0 4.0 0.00 0.00 0.00 50 928.8
20260507081601 29 360 0.0 0.0 0.00 0.00 0.00 51 928.7
20260507081057 28 360 0.0 0.0 0.00 0.00 0.00 53 928.8
20260507080558 28 360 0.0 2.0 0.00 0.00 0.00 54 928.7
20260507080058 28 360 0.0 4.0 0.00 0.00 0.00 54 928.9
20260507075555 29 360 1.0 6.0 0.00 0.00 0.00 52 928.8
20260507075054 31 360 2.0 7.0 0.00 0.00 0.00 44 928.8
20260507074558 35 360 2.0 7.0 0.00 0.00 0.00 40 928.8
20260507074056 36 360 5.0 7.0 0.00 0.00 0.00 41 928.6
20260507073055 36 360 4.0 7.0 0.00 0.00 0.00 41 928.6
20260507072553 36 360 5.0 7.0 0.00 0.00 0.00 40 928.6
20260507072052 36 360 5.0 7.0 0.00 0.00 0.00 40 928.6
20260507071552 36 360 5.0 8.0 0.00 0.00 0.00 40 928.5
20260507071052 36 360 6.0 8.0 0.00 0.00 0.00 41 928.5
20260507070552 35 360 4.0 6.0 0.00 0.00 0.00 41 928.6
20260507070052 35 360 4.0 7.0 0.00 0.00 0.00 41 928.5
20260507065553 35 360 5.0 7.0 0.00 0.00 0.00 41 928.5
20260507065050 34 360 4.0 5.0 0.00 0.00 0.00 42 928.5
20260507064552 35 360 2.0 5.0 0.00 0.00 0.00 41 928.6
20260507064048 35 360 3.0 6.0 0.00 0.00 0.00 39 928.6
20260507063047 37 360 6.0 8.0 0.00 0.00 0.00 38 928.5
20260507062547 37 360 6.0 8.0 0.00 0.00 0.00 38 928.6
20260507062048 37 360 6.0 8.0 0.00 0.00 0.00 38 928.6
20260507061546 37 360 4.0 7.0 0.00 0.00 0.00 38 928.5
20260507061047 37 360 6.0 8.0 0.00 0.00 0.00 38 928.5
20260507060544 37 360 6.0 8.0 0.00 0.00 0.00 38 928.5
20260507060045 37 360 6.0 7.0 0.00 0.00 0.00 38 928.6
20260507055544 38 360 5.0 7.0 0.00 0.00 0.00 38 928.5
20260507055043 37 360 5.0 8.0 0.00 0.00 0.00 39 928.5
20260507054543 37 360 6.0 8.0 0.00 0.00 0.00 39 928.5
20260507054047 36 360 6.0 7.0 0.00 0.00 0.00 40 928.6
20260507053643 36 360 3.0 6.0 0.00 0.00 0.00 41 928.7
20260507053042 36 360 2.0 5.0 0.00 0.00 0.00 42 928.8
20260507052546 34 360 1.0 4.0 0.00 0.00 0.00 44 928.6
20260507052041 32 360 0.0 1.0 0.00 0.00 0.00 48 928.8
20260507051542 30 360 0.0 1.0 0.00 0.00 0.00 49 928.8
20260507051041 30 360 0.0 1.0 0.00 0.00 0.00 49 928.8
20260507050541 28 360 0.0 6.0 0.00 0.00 0.00 51 928.8
20260507050043 28 360 1.0 6.0 0.00 0.00 0.00 49 928.8
20260507045542 30 360 0.0 0.0 0.00 0.00 0.00 50 928.8
20260507045041 30 360 0.0 0.0 0.00 0.00 0.00 45 928.8
20260507044546 31 360 0.0 0.0 0.00 0.00 0.00 44 928.7
20260507044039 31 360 0.0 0.0 0.00 0.00 0.00 43 928.8
20260507043054 33 360 0.0 0.0 0.00 0.00 0.00 43 928.9
20260507042539 33 360 0.0 0.0 0.00 0.00 0.00 43 928.9
20260507042042 33 360 0.0 0.0 0.00 0.00 0.00 42 929.0
20260507041539 34 360 0.0 0.0 0.00 0.00 0.00 41 929.0
20260507041038 34 360 0.0 2.0 0.00 0.00 0.00 42 928.9
20260507040538 35 360 0.0 2.0 0.00 0.00 0.00 40 928.9
20260507040040 36 360 0.0 0.0 0.00 0.00 0.00 40 929.0
20260507035537 35 360 0.0 0.0 0.00 0.00 0.00 40 929.0
20260507035037 37 360 0.0 0.0 0.00 0.00 0.00 36 929.0
20260507034538 39 360 0.0 5.0 0.00 0.00 0.00 34 929.1
20260507034036 41 360 2.0 5.0 0.00 0.00 0.00 33 929.0
20260507033038 41 360 3.0 4.0 0.00 0.00 0.00 33 929.1
20260507032537 41 360 2.0 4.0 0.00 0.00 0.00 33 929.0
20260507032035 41 360 1.0 3.0 0.00 0.00 0.00 32 929.1
20260507031539 42 360 1.0 3.0 0.00 0.00 0.00 31 929.1
20260507031036 43 360 0.0 5.0 0.00 0.00 0.00 31 929.1
20260507030538 44 360 2.0 5.0 0.00 0.00 0.00 31 929.1
20260507030036 44 360 2.0 3.0 0.00 0.00 0.00 32 929.0
20260507025535 43 360 0.0 1.0 0.00 0.00 0.00 33 929.0
20260507025037 42 360 0.0 1.0 0.00 0.00 0.00 34 929.1
20260507024536 42 360 0.0 0.0 0.00 0.00 0.00 34 929.1
20260507024034 43 360 0.0 0.0 0.00 0.00 0.00 34 929.1
20260507023037 44 360 0.0 1.0 0.00 0.00 0.00 33 929.1
20260507022536 44 360 0.0 1.0 0.00 0.00 0.00 32 929.2
20260507022038 45 360 0.0 4.0 0.00 0.00 0.00 30 929.1
20260507021539 45 360 1.0 3.0 0.00 0.00 0.00 30 929.2
20260507021036 46 360 3.0 4.0 0.00 0.00 0.00 29 929.2
20260507020536 46 360 2.0 3.0 0.00 0.00 0.00 29 929.2
20260507020047 47 360 2.0 5.0 0.00 0.00 0.00 30 929.2
20260507015535 48 360 4.0 5.0 0.00 0.00 0.00 30 929.2
20260507015035 49 360 3.0 5.0 0.00 0.00 0.00 29 929.3
20260507014536 49 360 4.0 5.0 0.00 0.00 0.00 29 929.3
20260507014035 50 360 4.0 5.0 0.00 0.00 0.00 28 929.3
20260507013033 52 360 5.0 9.0 0.00 0.00 0.00 26 929.3
20260507012535 52 350 6.0 9.0 0.00 0.00 0.00 25 929.4
20260507012032 52 335 7.0 11.0 0.00 0.00 0.00 25 929.3
20260507011542 52 325 7.0 13.0 0.00 0.00 0.00 25 929.3
20260507011031 53 360 9.0 14.0 0.00 0.00 0.00 24 929.2
20260507010531 53 360 9.0 15.0 0.00 0.00 0.00 24 929.3
20260507010035 53 360 6.0 13.0 0.00 0.00 0.00 24 929.3
20260507005530 53 360 10.0 13.0 0.00 0.00 0.00 24 929.3
20260507005031 54 360 5.0 14.0 0.00 0.00 0.00 23 929.3
20260507004532 54 360 9.0 14.0 0.00 0.00 0.00 23 929.4
20260507004031 54 360 8.0 14.0 0.00 0.00 0.00 24 929.4
20260507003031 54 360 10.0 15.0 0.00 0.00 0.00 25 929.4
20260507002530 54 360 9.0 21.0 0.00 0.00 0.00 25 929.4
20260507002031 54 360 12.0 21.0 0.00 0.00 0.00 24 929.6
20260507001602 54 360 11.0 18.0 0.00 0.00 0.00 24 929.4
20260507001033 54 360 10.0 19.0 0.00 0.00 0.00 24 929.5
20260507000529 54 360 12.0 19.0 0.00 0.00 0.00 23 929.6
20260507000035 55 360 11.0 19.0 0.00 0.00 0.00 23 929.6
20260506235532 55 360 4.0 15.0 0.00 0.00 0.00 23 929.5
20260506235028 55 360 10.0 22.0 0.00 0.00 0.00 23 929.7
20260506234528 55 360 15.0 22.0 0.00 0.00 0.00 23 929.6
20260506234029 55 360 14.0 20.0 0.00 0.00 0.00 23 929.7
20260506233027 55 360 9.0 19.0 0.00 0.00 0.00 23 929.7
20260506232528 55 360 13.0 21.0 0.00 0.00 0.00 23 929.7
20260506232027 55 360 10.0 21.0 0.00 0.00 0.00 23 929.8
20260506231527 55 360 12.0 22.0 0.00 0.00 0.00 23 929.7
20260506231027 55 360 17.0 22.0 0.00 0.00 0.00 23 929.7
20260506230530 55 360 7.0 24.0 0.00 0.00 0.00 23 929.8
20260506230040 55 360 10.0 24.0 0.00 0.00 0.00 24 929.7
20260506225526 55 360 11.0 21.0 0.00 0.00 0.00 23 929.7
20260506225026 56 360 14.0 21.0 0.00 0.00 0.00 23 929.8
20260506224525 55 360 9.0 15.0 0.00 0.00 0.00 24 929.8
20260506224024 55 360 11.0 15.0 0.00 0.00 0.00 23 929.8
20260506223030 55 360 10.0 16.0 0.00 0.00 0.00 23 930.0
20260506222525 55 360 9.0 13.0 0.00 0.00 0.00 24 929.8
20260506222023 54 360 8.0 21.0 0.00 0.00 0.00 25 930.0
20260506221522 55 360 9.0 21.0 0.00 0.00 0.00 24 930.0
20260506221024 55 360 4.0 18.0 0.00 0.00 0.00 24 930.0
20260506220521 55 360 12.0 19.0 0.00 0.00 0.00 24 930.2
20260506220020 55 360 8.0 18.0 0.00 0.00 0.00 25 930.3
20260506215520 54 360 7.0 18.0 0.00 0.00 0.00 24 930.3
20260506215019 54 360 8.0 18.0 0.00 0.00 0.00 25 930.3
20260506214518 54 360 7.0 18.0 0.00 0.00 0.00 24 930.5
20260506214018 54 360 6.0 12.0 0.00 0.00 0.00 24 930.7
20260506213018 54 360 13.0 21.0 0.00 0.00 0.00 24 930.9
20260506212517 55 360 12.0 20.0 0.00 0.00 0.00 25 930.9
20260506212017 54 360 7.0 20.0 0.00 0.00 0.00 25 930.9
20260506211520 54 360 10.0 23.0 0.00 0.00 0.00 25 931.0
20260506211015 54 360 14.0 23.0 0.00 0.00 0.00 26 931.1
20260506210520 54 360 6.0 14.0 0.00 0.00 0.00 25 931.2
20260506210029 53 360 3.0 14.0 0.00 0.00 0.00 25 931.3
20260506205513 54 360 9.0 14.0 0.00 0.00 0.00 26 931.3
20260506205016 53 331 8.0 19.0 0.00 0.00 0.00 26 931.4
20260506204512 54 309 13.0 20.0 0.00 0.00 0.00 24 931.5
20260506204012 54 271 13.0 20.0 0.00 0.00 0.00 26 931.5
20260506203011 54 349 9.0 16.0 0.00 0.00 0.00 24 931.8
20260506202510 54 259 10.0 18.0 0.00 0.00 0.00 25 931.7
20260506202009 53 243 10.0 18.0 0.00 0.00 0.00 26 931.7
20260506201511 52 339 7.0 19.0 0.00 0.00 0.00 25 931.7
20260506201009 52 340 8.0 19.0 0.00 0.00 0.00 26 931.8
20260506200507 53 290 7.0 21.0 0.00 0.00 0.00 25 932.0
20260506200006 53 284 12.0 21.0 0.00 0.00 0.00 25 932.0
20260506195507 53 360 9.0 15.0 0.00 0.00 0.00 24 932.1
20260506195005 52 297 9.0 16.0 0.00 0.00 0.00 25 932.2
20260506194506 52 360 11.0 21.0 0.00 0.00 0.00 25 932.2
20260506194007 52 360 12.0 18.0 0.00 0.00 0.00 25 932.4
20260506193004 51 360 14.0 21.0 0.00 0.00 0.00 25 932.6
20260506192503 52 360 14.0 21.0 0.00 0.00 0.00 26 932.6
20260506192003 51 360 10.0 19.0 0.00 0.00 0.00 26 932.6
20260506191507 52 360 14.0 19.0 0.00 0.00 0.00 25 932.6
20260506191001 51 360 9.0 18.0 0.00 0.00 0.00 26 932.7
20260506190501 52 360 9.0 15.0 0.00 0.00 0.00 26 932.8
20260506185602 50 254 5.0 11.0 0.00 0.00 0.00 27 933.1
20260506185103 50 254 6.0 16.0 0.00 0.00 0.00 27 933.3
20260506184559 51 272 11.0 16.0 0.00 0.00 0.00 26 933.3
20260506184058 51 238 9.0 18.0 0.00 0.00 0.00 27 933.4
20260506183657 50 242 10.0 16.0 0.00 0.00 0.00 27 933.3
20260506183105 50 228 8.0 16.0 0.00 0.00 0.00 28 933.5
20260506182555 49 329 7.0 19.0 0.00 0.00 0.00 28 933.7
20260506182055 49 311 11.0 19.0 0.00 0.00 0.00 27 933.8
20260506181558 49 293 11.0 16.0 0.00 0.00 0.00 28 933.9
20260506181054 49 271 10.0 20.0 0.00 0.00 0.00 26 934.0
20260506180553 49 259 10.0 16.0 0.00 0.00 0.00 28 934.0
20260506180054 48 9 10.0 19.0 0.00 0.00 0.00 27 934.2
20260506175553 49 327 11.0 19.0 0.00 0.00 0.00 27 934.2
20260506175054 49 329 8.0 18.0 0.00 0.00 0.00 26 934.3
20260506174551 48 322 10.0 22.0 0.00 0.00 0.00 26 934.4
20260506174051 49 338 14.0 22.0 0.00 0.00 0.00 27 934.4
20260506173650 48 302 9.0 18.0 0.00 0.00 0.00 26 934.3
20260506173057 48 292 11.0 18.0 0.00 0.00 0.00 26 934.5
20260506172549 48 271 6.0 15.0 0.00 0.00 0.00 28 934.5
20260506172048 47 300 7.0 20.0 0.00 0.00 0.00 27 934.5
20260506171549 48 289 13.0 20.0 0.00 0.00 0.00 27 934.7
20260506171047 47 289 11.0 19.0 0.00 0.00 0.00 27 934.7
20260506170546 47 257 9.0 18.0 0.00 0.00 0.00 27 934.8
20260506170053 47 342 10.0 16.0 0.00 0.00 0.00 28 934.8
20260506165546 48 251 9.0 16.0 0.00 0.00 0.00 28 934.9
20260506165046 47 261 10.0 18.0 0.00 0.00 0.00 29 934.9
20260506164555 47 249 8.0 18.0 0.00 0.00 0.00 29 935.0
20260506164042 46 329 7.0 16.0 0.00 0.00 0.00 29 935.2
20260506163642 46 269 13.0 20.0 0.00 0.00 0.00 29 935.2
20260506163046 46 319 12.0 20.0 0.00 0.00 0.00 29 935.3
20260506162545 46 311 10.0 13.0 0.00 0.00 0.00 29 935.2
20260506162042 46 313 8.0 15.0 0.00 0.00 0.00 29 935.2
20260506161540 46 286 11.0 15.0 0.00 0.00 0.00 30 935.3
20260506161039 46 293 9.0 15.0 0.00 0.00 0.00 30 935.3
20260506160540 45 314 4.0 19.0 0.00 0.00 0.00 32 935.4
20260506160037 45 323 10.0 19.0 0.00 0.00 0.00 30 935.5
20260506155535 45 328 7.0 16.0 0.00 0.00 0.00 30 935.4
20260506155035 45 317 10.0 16.0 0.00 0.00 0.00 30 935.5
20260506154536 45 259 7.0 15.0 0.00 0.00 0.00 32 935.5
20260506154034 45 336 8.0 15.0 0.00 0.00 0.00 31 935.4
20260506153633 44 314 10.0 16.0 0.00 0.00 0.00 33 935.5
20260506153032 44 290 9.0 16.0 0.00 0.00 0.00 34 935.5
20260506152532 44 329 7.0 16.0 0.00 0.00 0.00 35 935.6
20260506152030 43 269 8.0 13.0 0.00 0.00 0.00 36 935.8
20260506151530 43 270 6.0 11.0 0.00 0.00 0.00 38 935.9
20260506151027 43 312 8.0 11.0 0.00 0.00 0.00 39 935.9
20260506150527 42 335 4.0 9.0 0.00 0.00 0.00 39 935.9
20260506150026 41 277 5.0 11.0 0.00 0.00 0.00 41 936.0
20260506145523 40 278 7.0 10.0 0.00 0.00 0.00 41 936.0
20260506145021 39 360 1.0 9.0 0.00 0.00 0.00 43 936.0
20260506144526 39 360 3.0 12.0 0.00 0.00 0.00 42 936.2
20260506144019 39 360 8.0 12.0 0.00 0.00 0.00 43 936.2
20260506143619 38 360 7.0 10.0 0.00 0.00 0.00 43 936.2
20260506143020 38 360 7.0 11.0 0.00 0.00 0.00 44 936.2
20260506142517 37 360 7.0 12.0 0.00 0.00 0.00 45 936.2
20260506142017 37 360 8.0 12.0 0.00 0.00 0.00 45 936.2
20260506141526 36 360 7.0 10.0 0.00 0.00 0.00 47 936.2
20260506141015 35 360 5.0 9.0 0.00 0.00 0.00 50 936.4
20260506140512 34 360 7.0 9.0 0.00 0.00 0.00 51 936.4
20260506140012 34 360 7.0 9.0 0.00 0.00 0.00 52 936.4
20260506135509 33 360 4.0 6.0 0.00 0.00 0.00 55 936.4
20260506135008 32 360 1.0 6.0 0.00 0.00 0.00 57 936.4
20260506134507 31 360 4.0 6.0 0.00 0.00 0.00 58 936.6
20260506134006 30 360 2.0 5.0 0.00 0.00 0.00 59 936.5
20260506133604 30 360 3.0 5.0 0.00 0.00 0.00 60 936.5
20260506133003 29 360 4.0 5.0 0.00 0.00 0.00 62 936.6
20260506132502 28 360 2.0 5.0 0.00 0.00 0.00 63 936.5
20260506132001 27 360 2.0 5.0 0.00 0.00 0.00 64 936.5
20260506131616 27 360 1.0 4.0 0.00 0.00 0.00 66 936.6
20260506131059 26 360 1.0 4.0 0.00 0.00 0.00 68 936.5
20260506130557 26 360 0.0 2.0 0.00 0.00 0.00 70 936.5
20260506130058 25 360 0.0 0.0 0.00 0.00 0.00 72 936.5
20260506125556 24 360 0.0 2.0 0.00 0.00 0.00 73 936.5
20260506125056 23 360 1.0 2.0 0.00 0.00 0.00 74 936.5
20260506124555 21 360 0.0 0.0 0.00 0.00 0.00 75 936.4
20260506124054 20 360 0.0 0.0 0.00 0.00 0.00 75 936.4
20260506123554 19 360 0.0 0.0 0.00 0.00 0.00 76 936.3
20260506122554 18 360 0.0 1.0 0.00 0.00 0.00 75 936.3
20260506122053 17 360 0.0 1.0 0.00 0.00 0.00 75 936.2
20260506121557 16 360 0.0 2.0 0.00 0.00 0.00 74 936.3
20260506121053 16 360 0.0 4.0 0.00 0.00 0.00 74 936.2
20260506120552 16 360 1.0 3.0 0.00 0.00 0.00 74 936.2